Location: Kopernik Observatory
(42.0014°N, 76.0372°W)
Time: 20:59:33
(UTC-04:00)

Daily predictions for brighter satellites

Satellite Brightness Start Highest point End
(mag) Time Altitude Azimuth Time Altitude Azimuth Time Altitude Azimuth
EO 1 Delta rocket 4.5 20:10:20 10° NNE 20:14:39 36° E 20:19:23 10° SSE
Helios 1A 3.5 20:10:39 10° S 20:14:46 63° WSW 20:18:58 10° NNW
NOSS 3-4 (A) 4.1 20:08:10 10° NNW 20:15:01 55° NE 20:22:15 10° SE
NOSS 3-4 (C) 4.1 20:08:17 10° NNW 20:15:08 55° NE 20:22:21 10° SE
Cosmos 1892 Rocket 3.9 20:11:09 10° N 20:15:31 49° ENE 20:19:51 10° SSE
Cosmos 1809 Rocket 4.5 20:09:49 10° S 20:15:56 71° E 20:22:03 10° NNE
BREEZE-M DEB (TANK) 4.4 20:15:09 10° NW 20:17:47 30° NNE 20:23:40 10° ENE
Okean 2 3.8 20:14:17 10° N 20:18:17 43° ENE 20:22:15 10° SSE
Resurs 1-3 3.8 20:14:05 10° S 20:18:28 79° WSW 20:22:53 10° NNW
Cosmos 1025 Rocket 3.1 20:16:42 10° N 20:21:06 89° NW 20:25:26 10° S
Cosmos 2219 3.7 20:16:06 10° NNW 20:21:40 65° WSW 20:27:12 10° S
Cosmos 2239 Rocket 4.5 20:15:56 10° S 20:22:07 69° E 20:28:16 10° NNE
Cosmos 1455 Rocket 3.6 20:18:16 10° SSE 20:22:15 37° E 20:26:15 10° NNE
Cosmos 1975 4.3 20:21:49 10° SE 20:24:40 18° E 20:27:32 10° NE
Spot 2 Rocket 4.4 20:19:45 10° S 20:24:43 54° W 20:29:44 10° NNW
Cosmos 1656 Rocket 4.4 20:20:29 10° SW 20:26:01 60° WNW 20:31:29 10° NNE
Cosmos 1570 Rocket 4.2 20:23:17 10° S 20:28:21 48° ESE 20:33:26 10° NNE
Resurs 01 Rocket 3.0 20:28:57 10° S 20:33:07 41° W 20:37:20 10° NNW
Cosmos 1934 Rocket 4.0 20:27:40 10° S 20:33:42 66° E 20:39:51 10° NNE
Meteor 2-4 Rocket 3.9 20:27:55 10° N 20:33:47 84° W 20:39:41 10° S
Cosmos 1461 3.6 20:30:07 10° NNW 20:33:56 36° NE 20:37:13 12° ESE
Lacrosse 5 rocket 2.4 20:31:25 10° NNW 20:34:40 27° NNE 20:37:38 11° E
Envisat 4.1 20:31:08 10° ESE 20:35:17 26° ENE 20:39:27 10° N
Cosmos 1315 Rocket 3.8 20:32:21 10° SSW 20:36:14 51° WNW 20:40:13 10° N
Cosmos 2278 3.9 20:34:26 10° S 20:39:52 49° ESE 20:45:21 10° NE
Cosmos 1697 Rocket 4.0 20:36:55 10° SE 20:40:35 18° E 20:44:14 10° ENE
Tiangong 1 0.9 20:38:58 10° WSW 20:42:04 85° S 20:44:50 12° E
DELTA 2 R/B (1) 3.6 20:38:38 10° W 20:44:11 70° S 20:49:03 13° E
CZ-4 DEB 3.6 20:42:04 14° SE 20:44:22 32° ENE 20:47:15 10° N
NOSS 7 (E) 4.5 20:42:53 10° SSW 20:46:17 53° ESE 20:49:35 10° NE
USA 186 1.7 20:45:22 10° S 20:48:31 82° W 20:51:31 10° NNW
H-2A R/B 3.0 20:46:26 10° S 20:50:17 71° W 20:54:13 10° NNW
OTV 4 1.3 20:48:05 10° WSW 20:50:51 36° S 20:52:22 21° SE
Cosmos 2369 3.8 20:47:14 10° S 20:52:45 56° ESE 20:58:19 10° NNE
ATLAS CENTAUR R/B 4.2 20:50:28 10° WSW 20:54:43 27° NW 20:58:53 10° NNE
Cosmos 1939 Rocket 3.6 20:52:33 16° SE 20:55:22 37° ENE 20:59:12 10° N
Iridium 4 Rocket 3.7 20:50:20 10° N 20:55:22 46° E 20:59:35 12° SSE
Cosmos 1544 Rocket 4.0 20:51:28 10° SSW 20:55:48 67° W 21:00:12 10° N
OAO 2 Rocket 4.3 20:57:27 10° SW 21:01:44 28° SSE 21:03:59 20° SE
SJ-11-01 4.3 20:57:41 12° SSE 21:01:59 62° ENE 21:06:38 10° N
Cosmos 1980 Rocket 3.7 21:02:28 16° E 21:02:28 16° E 21:05:37 10° ENE
ERS-1 Rocket 2.9 21:07:31 14° SSE 21:11:51 73° ENE 21:16:52 10° N
Cosmos 1898 Rocket 4.1 21:06:54 10° N 21:11:56 41° ENE 21:14:35 24° ESE
Cosmos 1605 Rocket 4.1 21:10:18 10° S 21:16:40 83° W 21:23:00 10° N
Cosmos 1346 Rocket 3.8 21:13:25 10° NNW 21:17:12 46° W 21:21:00 10° SSW
Cosmos 2061 Rocket 4.4 21:15:45 17° SSE 21:20:14 42° E 21:26:04 10° NNE
RESURS DK-1 3.7 21:19:02 10° N 21:22:28 25° NE 21:23:22 23° ENE
Cosmos 2100 Rocket 4.2 21:17:20 14° SSE 21:22:35 48° E 21:28:33 10° NNE
Cosmos 2227 Rocket 2.5 21:22:31 10° NNW 21:28:09 67° WSW 21:32:23 18° S
MetOp-B 4.5 21:28:49 30° ESE 21:31:02 47° ENE 21:36:09 10° N
ALOS 4.5 21:29:15 10° SSW 21:32:59 24° W 21:36:45 10° NW
Cosmos 468 Rocket 4.0 21:29:32 13° S 21:33:54 53° ESE 21:38:54 10° NNE
Cosmos 1500 3.0 21:34:20 32° S 21:35:57 79° E 21:39:43 10° N
Cosmos 1825 Rocket 4.0 21:33:26 10° N 21:37:41 43° ENE 21:38:16 40° E
BREEZE-M DEB (TANK) 3.8 21:24:40 10° SW 21:39:53 69° SSE 21:42:56 24° ENE
Cosmos 2082 4.2 21:35:15 10° NNW 21:40:45 56° WSW 21:44:33 20° S
Cosmos 1814 Rocket 4.1 21:37:53 24° S 21:40:54 52° ESE 21:46:04 10° NNE
Cosmos 1656 3.5 21:35:39 10° SSW 21:41:17 79° ESE 21:46:52 10° NNE
Cosmos 972 Rocket 4.4 21:38:11 10° N 21:43:58 65° ENE 21:46:40 35° SE
Cosmos 2297 Rocket 2.4 21:38:24 10° NNW 21:44:01 69° WSW 21:47:09 27° S
USA 215 3.9 21:42:02 24° E 21:45:44 47° NNE 21:51:56 10° NW
Cosmos 1953 Rocket 4.2 21:41:45 10° N 21:45:55 39° ENE 21:45:59 39° E
Lacrosse 5 2.3 21:45:18 10° NW 21:50:14 49° NE 21:51:36 38° E
H-2A R/B 1.9 21:49:23 48° S 21:50:29 81° WSW 21:54:37 10° NNW
Cosmos 1340 3.3 21:48:22 10° N 21:51:29 42° NE 21:51:29 42° NE
SPOT 5 2.9 21:52:32 41° SSE 21:54:22 87° ENE 21:59:18 10° NNW
deb Chang Zheng 4 3.6 21:50:05 10° NNE 21:54:34 82° WNW 21:57:04 26° SSW
Cosmos 1725 Rocket 4.4 21:57:36 39° ESE 21:58:15 40° E 22:04:01 10° NNE
Cosmos 858 Rocket 4.4 21:53:02 10° NNW 21:58:21 88° WSW 21:59:55 47° SSE
Cosmos 2298 Rocket 4.1 21:53:40 10° NNW 21:58:58 72° WSW 22:00:56 39° S
Cosmos 1459 Rocket 3.9 21:59:01 21° S 22:03:17 87° W 22:09:25 10° N
Cosmos 1758 Rocket 3.9 22:00:58 10° N 22:04:48 50° NE 22:04:48 50° NE
Cosmos 1743 2.7 22:06:26 81° NW 22:06:26 81° NW 22:10:16 10° N
H-2A R/B 2.9 22:10:13 33° ENE 22:10:13 33° ENE 22:14:23 10° N
YAOGAN 6 3.0 22:12:12 62° NW 22:12:12 62° NW 22:15:28 10° NNW
Lacrosse 5 rocket 2.3 22:10:33 10° WNW 22:13:22 34° WSW 22:13:22 34° WSW
Envisat 4.1 22:11:14 21° SSW 22:14:05 39° W 22:18:51 10° NNW
GEOS 3 Rocket 3.9 22:11:13 10° NE 22:15:07 48° ENE 22:15:07 48° ENE
Cosmos 2098 Rocket 4.1 22:14:26 47° SSE 22:16:24 65° E 22:22:31 10° NNE
MetOp-A 4.3 22:15:53 44° SSW 22:17:31 66° WSW 22:22:52 10° NNW
Tiangong 1 3.4 22:15:32 10° W 22:16:48 22° W 22:16:48 22° W
Cosmos 1937 Rocket 3.6 22:14:55 10° NNW 22:20:10 72° WSW 22:21:02 59° SSW
Landsat 7 4.3 22:24:23 47° NE 22:24:23 47° NE 22:28:22 10° N
Cosmos 1697 Rocket 3.0 22:18:20 10° SW 22:23:57 65° WNW 22:29:35 10° NNE
Cosmos 1842 4.3 22:20:10 10° N 22:22:45 38° N 22:22:45 38° N
Cosmos 2058 Rocket 3.7 22:25:44 48° NNE 22:25:44 48° NNE 22:29:06 10° NNE
Cosmos 1802 Rocket 4.2 22:20:59 25° SSW 22:24:53 71° W 22:31:20 10° N
SL-16 R/B 4.0 22:29:58 18° NE 22:29:58 18° NE 22:31:37 10° NE
SPOT 1/Viking Rocket 3.5 22:28:06 71° SSW 22:28:37 79° WSW 22:33:52 10° NNW
NOAA 11 4.1 22:29:44 70° S 22:30:22 83° WSW 22:35:53 10° NNW
DELTA 2 R/B (1) 4.0 22:25:02 10° W 22:29:48 47° SW 22:29:48 47° SW
ASTEX 1 3.9 22:26:58 10° N 22:31:54 58° W 22:33:04 46° SW
SL-08 R/B 4.4 22:30:45 52° S 22:32:26 87° W 22:38:40 10° N
Cosmos 2084 4.5 22:30:13 10° NW 22:33:22 40° W 22:33:22 40° W
SL-08 RB Rocket 3.9 22:35:12 71° NNW 22:35:12 71° NNW 22:39:23 10° NNW
Meteor 1-15 Rocket 4.2 22:35:41 71° E 22:35:41 71° E 22:41:28 10° NNE
Cosmos 990 Rocket 4.1 22:32:26 10° NNW 22:37:40 68° WSW 22:37:48 67° WSW
Cosmos 1606 Rocket 4.2 22:38:14 51° WNW 22:38:14 51° WNW 22:42:31 10° N
Terra 2.7 22:40:15 41° NNE 22:40:15 41° NNE 22:43:45 10° N
CZ-4B R/B 3.6 22:39:48 10° N 22:44:01 66° NNW 22:44:01 66° NNW
Cosmos 1980 Rocket 2.3 22:44:07 50° SW 22:45:33 71° WNW 22:51:16 10° NNE
Cosmos 2016 Rocket 4.4 22:43:28 34° SW 22:46:01 57° W 22:52:07 10° N
ARGOS 3.5 22:49:32 56° WSW 22:49:49 56° W 22:55:07 10° NNW
Cosmos 1125 Rocket 4.0 22:55:06 10° NNW 22:59:15 56° N 22:59:15 56° N
RESURS DK-1 4.3 22:56:55 10° NW 22:59:18 25° WNW 22:59:18 25° WNW
Cosmos 1763 Rocket 4.2 23:04:53 48° WNW 23:05:02 48° WNW 23:09:57 10° N
Tsikada Rocket 4.4 23:05:44 10° NNW 23:12:00 56° W 23:12:34 55° WSW
Cosmos 2263 Rocket 3.0 23:10:28 10° NNW 23:14:41 42° NNE 23:14:41 42° NNE
Cosmos 2322 Rocket 3.2 23:18:34 37° NNE 23:18:34 37° NNE 23:21:54 10° NNE
USA 215 3.5 23:29:23 57° WSW 23:29:23 57° WSW 23:35:05 10° NW
Lacrosse 5 3.8 23:28:36 10° WNW 23:30:48 22° W 23:30:48 22° W
H-2A R/B 3.8 23:50:52 24° WNW 23:50:52 24° WNW 23:53:40 10° NW
Cosmos 2278 Rocket 4.5 23:53:28 10° NNE 23:56:26 14° NE 23:56:45 14° NE
